Вернуться в каталог

ORBCOMM FM 115

АктивенСвязьLEO
NORAD 41186·PAYLOAD·🇺🇸 United States

Запущен Dec 22, 2015 с Cape Canaveral Space Force Station

Loading…

Ближайшие Пролёты (ближайшие 24 часа)

TLE

СвежийSource: Space-Track

Эпоха: Sep 14, 2026, 03:13 UTC

1 41186U 15081H   26257.13432665  .00000340  00000-0  99116-4 0  9994
2 41186  46.9992  38.9124 0000862 322.2209  37.8618 14.63358741574241

Отслеживайте ORBCOMM FM 115 в реальном времени с AllMySat

Download on the App Store